Location: Chalybeate
(34.9304°N, 88.8681°W)
Time: 05:51:05
(UTC+00:00)

Daily predictions for brighter satellites

Satellite Brightness Start Highest point End
(mag) Time Altitude Azimuth Time Altitude Azimuth Time Altitude Azimuth
Orbus 7S 4.3 01:31:32 10° SW 01:33:43 22° SSE 01:36:58 10° ESE
SL-4 R/B 1.5 01:33:17 10° NNW 01:36:07 58° WSW 01:38:40 10° SSE
Cosmos 1833 Rocket 2.7 01:30:52 10° NNW 01:36:31 81° ENE 01:42:07 10° SSE
STARLINK-1082 3.8 01:33:21 10° NW 01:37:28 66° NE 01:41:35 10° SE
BREEZE-M DEB 1.7 01:36:00 10° SW 01:38:16 53° SE 01:40:34 10° ENE
STARLINK-1444 1.7 01:36:16 10° SW 01:38:17 63° SE 01:40:18 10° NE
STARLINK-1452 1.6 01:36:53 10° SW 01:38:54 65° SE 01:40:55 10° NE
STARLINK-1450 1.5 01:38:11 10° SW 01:40:08 69° SE 01:42:06 10° NE
STARLINK-1436 (VISORSAT) 1.6 01:38:13 10° SW 01:40:13 69° SE 01:42:11 10° NE
FREGAT/IRIS 2.2 01:37:35 10° SSE 01:40:14 82° E 01:42:54 10° N
STARLINK-1392 1.5 01:38:17 10° SW 01:40:16 69° SE 01:42:13 10° NE
STARLINK-1398 1.6 01:38:15 10° SW 01:40:16 69° SE 01:42:16 10° NE
STARLINK-1414 1.6 01:38:16 10° SW 01:40:16 69° SE 01:42:15 10° NE
STARLINK-1399 1.5 01:38:18 10° SW 01:40:17 69° SE 01:42:14 10° NE
STARLINK-1415 1.5 01:38:18 10° SW 01:40:17 69° SE 01:42:14 10° NE
STARLINK-1416 1.6 01:38:17 10° SW 01:40:17 69° SE 01:42:16 10° NE
STARLINK-1394 1.5 01:38:19 10° SW 01:40:18 69° SE 01:42:15 10° NE
STARLINK-1395 1.5 01:38:19 10° SW 01:40:18 69° SE 01:42:15 10° NE
STARLINK-1393 1.5 01:38:19 10° SW 01:40:19 69° SE 01:42:15 10° NE
STARLINK-1401 1.5 01:38:20 10° SW 01:40:19 69° SE 01:42:16 10° NE
STARLINK-1419 1.6 01:38:19 10° SW 01:40:19 69° SE 01:42:19 10° NE
STARLINK-1408 1.6 01:38:18 10° SW 01:40:19 69° SE 01:42:18 10° NE
STARLINK-1396 1.5 01:38:20 10° SW 01:40:19 69° SE 01:42:16 10° NE
STARLINK-1397 1.5 01:38:20 10° SW 01:40:19 69° SE 01:42:16 10° NE
STARLINK-1404 1.5 01:38:21 10° SW 01:40:19 69° SE 01:42:17 10° NE
STARLINK-1453 1.5 01:38:21 10° SW 01:40:20 69° SE 01:42:17 10° NE
STARLINK-1402 1.5 01:38:22 10° SW 01:40:21 69° SE 01:42:19 10° NE
STARLINK-1417 1.5 01:38:22 10° SW 01:40:21 69° SE 01:42:19 10° NE
STARLINK-1420 1.6 01:38:21 10° SW 01:40:22 69° SE 01:42:21 10° NE
STARLINK-1413 1.5 01:38:23 10° SW 01:40:22 70° SE 01:42:20 10° NE
STARLINK-1406 1.5 01:38:24 10° SW 01:40:22 70° SE 01:42:20 10° NE
STARLINK-1422 1.6 01:38:23 10° SW 01:40:23 70° SE 01:42:23 10° NE
STARLINK-1460 1.6 01:38:23 10° SW 01:40:23 70° SE 01:42:23 10° NE
STARLINK-1440 1.5 01:38:25 10° SW 01:40:25 70° SE 01:42:22 10° NE
STARLINK-1458 1.6 01:38:24 10° SW 01:40:25 70° SE 01:42:24 10° NE
STARLINK-1445 1.5 01:38:26 10° SW 01:40:25 70° SE 01:42:22 10° NE
STARLINK-1443 1.5 01:38:27 10° SW 01:40:26 70° SE 01:42:24 10° NE
STARLINK-1454 1.5 01:38:27 10° SW 01:40:26 70° SE 01:42:24 10° NE
STARLINK-1457 1.5 01:38:28 10° SW 01:40:27 70° SE 01:42:25 10° NE
STARLINK-1456 1.5 01:38:28 10° SW 01:40:27 70° SE 01:42:25 10° NE
STARLINK-1451 1.5 01:38:29 10° SW 01:40:27 70° SE 01:42:26 10° NE
STARLINK-1437 1.6 01:38:27 10° SW 01:40:27 70° SE 01:42:27 10° NE
STARLINK-1446 1.6 01:38:27 10° SW 01:40:28 70° SE 01:42:27 10° NE
STARLINK-1442 1.5 01:38:30 10° SW 01:40:29 70° SE 01:42:26 10° NE
STARLINK-1447 1.6 01:38:30 10° SW 01:40:31 70° SE 01:42:30 10° NE
STARLINK-1423 1.6 01:38:30 10° SW 01:40:31 70° SE 01:42:30 10° NE
STARLINK-1455 1.6 01:38:30 10° SW 01:40:31 70° SE 01:42:31 10° NE
STARLINK-1405 1.5 01:38:32 10° SW 01:40:31 70° SE 01:42:29 10° NE
STARLINK-1421 1.5 01:38:32 10° SW 01:40:31 70° SE 01:42:29 10° NE
STARLINK-1441 1.6 01:38:31 10° SW 01:40:31 70° SE 01:42:32 10° NE
STARLINK-1407 1.5 01:38:33 10° SW 01:40:32 70° SE 01:42:30 10° NE
STARLINK-1400 1.5 01:38:33 10° SW 01:40:32 70° SE 01:42:29 10° NE
STARLINK-1410 1.5 01:38:33 10° SW 01:40:32 70° SE 01:42:29 10° NE
STARLINK-1439 1.5 01:38:34 10° SW 01:40:33 70° SE 01:42:30 10° NE
STARLINK-1448 1.6 01:38:32 10° SW 01:40:33 70° SE 01:42:33 10° NE
STARLINK-1449 1.6 01:38:32 10° SW 01:40:33 70° SE 01:42:33 10° NE
STARLINK-1409 1.5 01:38:34 10° SW 01:40:33 70° SE 01:42:31 10° NE
STARLINK-1351 1.5 01:38:35 10° SW 01:40:34 70° SE 01:42:32 10° NE
STARLINK-1370 1.5 01:38:35 10° SW 01:40:34 70° SE 01:42:32 10° NE
STARLINK-1434 1.5 01:38:36 10° SW 01:40:34 70° SE 01:42:32 10° NE
STARLINK-1418 1.5 01:38:36 10° SW 01:40:34 70° SE 01:42:32 10° NE
STARLINK-1403 1.5 01:38:37 10° SW 01:40:35 70° SE 01:42:33 10° NE
STARLINK-1433 1.5 01:38:38 10° SW 01:40:37 70° SE 01:42:35 10° NE
STARLINK-1411 1.5 01:38:39 10° SW 01:40:38 71° SE 01:42:35 10° NE
STARLINK-1438 1.5 01:38:39 10° SW 01:40:38 71° SE 01:42:35 10° NE
STARLINK-1412 1.6 01:38:40 10° SW 01:40:41 71° SE 01:42:41 10° NE
Iridium 51 4.0 01:38:03 10° S 01:41:49 76° E 01:45:22 10° N
STARLINK-1100 3.7 01:38:17 10° NW 01:42:26 74° NE 01:46:34 10° SE
Cosmos 2297 3.7 01:39:28 10° S 01:45:05 69° ESE 01:50:46 10° NNE
NOSS 2-2 (E) 3.3 01:41:40 10° SW 01:45:14 74° WNW 01:48:55 10° NNE
STARLINK-1083 3.6 01:43:15 10° NW 01:47:24 82° NE 01:51:21 11° SE
COSMOS 2406 4.1 01:41:58 10° NNW 01:47:30 49° WSW 01:52:58 10° S
Meteor 2-4 Rocket 3.8 01:42:51 10° S 01:48:11 81° W 01:53:34 10° N
STARLINK-29 3.0 01:47:03 10° SSW 01:50:12 53° SE 01:53:22 10° NE
Cosmos 2279 Rocket 4.4 01:45:17 10° N 01:51:14 46° E 01:57:07 10° SSE
STARLINK-1125 3.6 01:48:14 10° NW 01:52:23 89° SSW 01:56:09 12° SE
Cosmos 2082 Rocket 2.3 01:46:53 10° NNW 01:52:34 66° ENE 01:58:11 10° SSE
Cosmos 2369 Rocket 3.3 01:48:48 10° SSE 01:53:04 22° E 01:57:20 10° NE
Cosmos 1975 3.7 01:49:31 10° NNW 01:53:25 51° W 01:57:15 10° S
ISS -3.2 01:51:53 10° WNW 01:55:10 53° SW 01:58:06 12° SSE
Cosmos 332 Rocket 4.4 01:50:33 10° SSW 01:55:24 63° WNW 02:00:15 10° N
USA 186 2.7 01:54:21 10° S 01:56:49 38° W 01:59:29 10° NNW
STARLINK-1109 3.6 01:53:11 10° NW 01:57:21 81° SW 02:00:55 13° SE
STARLINK-1091 3.7 01:58:10 10° NW 02:02:18 72° SW 02:05:42 15° SE
SJ-6B 3.1 02:01:32 10° S 02:05:12 61° W 02:08:55 10° NNW
USA 267 4.0 01:59:02 10° SSE 02:05:15 46° SW 02:11:31 10° NW
STARLINK-1072 3.9 02:03:13 10° NW 02:07:18 64° SW 02:10:31 16° SSE
H-2A ROCKET BODY 3.8 02:03:34 10° SSW 02:07:36 26° SE 02:18:51 10° E
Sakura Rocket 4.4 02:02:45 10° WSW 02:07:55 45° S 02:13:42 15° ESE
Lacrosse 5 2.4 02:04:38 10° NW 02:09:32 52° SW 02:13:58 12° SSE
NOSS 2-2 (C) 4.3 02:07:30 10° SW 02:10:57 45° NW 02:14:30 10° NNE
STARLINK-1096 4.0 02:08:11 10° NW 02:12:14 57° SW 02:15:16 17° SSE
SL-08 RB Rocket 4.4 02:09:03 10° S 02:13:31 53° W 02:17:58 10° NNW
ATLAS 2AS CENTAUR R/B 3.5 02:08:56 10° S 02:15:54 36° ESE 02:22:59 10° NE
Aureole 2 Rocket 4.3 02:13:49 10° SW 02:16:34 28° WNW 02:19:12 10° N
STARLINK-1079 4.2 02:13:13 10° NW 02:17:14 50° SW 02:20:05 18° SSE
Meteor 1-23 Rocket 4.3 02:12:10 10° S 02:17:45 61° E 02:23:17 10° NNE
Cosmos 1066 Rocket 4.1 02:14:43 10° S 02:20:00 61° E 02:25:16 10° NNE
MetOp-A 4.3 02:16:36 10° S 02:21:56 74° WSW 02:27:18 10° NNW
STARLINK-1116 4.4 02:18:14 10° WNW 02:22:11 44° SW 02:24:51 19° SSE
STARLINK-52 3.3 02:22:26 10° SW 02:25:36 65° NW 02:28:47 10° NE
H-2A R/B 4.0 02:28:43 10° SSW 02:30:38 12° S 02:31:37 12° S
COSMOS 2455 4.1 02:30:26 19° ESE 02:30:53 19° ESE 02:34:58 10° ENE
Milstar 3 Cent rocket 3.8 02:25:37 10° SW 02:32:16 42° SSE 02:45:17 10° E
STARLINK-1102 4.4 02:30:31 10° NNW 02:34:28 42° NE 02:36:32 24° E
Chunghua 1 4.5 02:30:43 10° W 02:34:33 82° S 02:36:25 29° ESE
Spot 2 Rocket 4.1 02:35:31 25° SE 02:37:56 41° ENE 02:42:38 10° N
Cosmos 1741 Rocket 4.3 02:33:08 10° NNW 02:38:19 67° WSW 02:42:12 18° S
GPS 2-04 Rocket1 2.9 02:36:05 10° W 02:39:21 42° SSW 02:40:07 36° SSE
STARLINK-1111 4.2 02:35:29 10° NW 02:39:29 46° NE 02:41:19 27° E
Okean 1 Rocket 3.2 02:35:21 10° N 02:39:42 55° E 02:41:36 30° SE
SL-4 R/B 3.9 02:36:56 10° WSW 02:41:15 38° NW 02:45:44 10° NE
FALCON 9 DEB 3.1 02:38:05 10° SW 02:41:30 82° NW 02:44:55 10° NE
STARLINK-1073 4.1 02:40:24 10° NW 02:44:27 51° NE 02:46:05 31° E
SPOT 5 4.5 02:46:23 20° E 02:48:07 24° ENE 02:52:17 10° NNE
STARLINK-1121 3.9 02:45:20 10° NW 02:49:25 57° NE 02:50:51 36° ESE
IGS 5A 4.0 02:48:39 34° ESE 02:49:42 41° ENE 02:53:37 10° N
SL-27 R/B 4.2 02:48:09 10° NNE 02:50:47 19° ENE 02:50:47 19° ENE
Cosmos 2263 4.2 02:48:43 20° S 02:52:31 54° ESE 02:57:58 10° NNE
ATLAS CENTAUR R/B 1.8 02:52:16 37° SSE 02:53:18 44° ESE 02:57:23 10° NE
STARLINK-1106 3.8 02:50:19 10° NW 02:54:26 63° NE 02:55:39 41° ESE
STARLINK-1362 4.3 02:56:04 34° E 02:56:04 34° E 02:58:45 10° ENE
Okean 2 3.6 02:54:11 42° SE 02:55:05 51° E 02:59:07 10° NNE
Terra 3.5 02:55:01 17° E 02:55:53 18° ENE 02:59:01 10° NNE
Resurs 01 Rocket 2.2 02:54:43 21° S 02:57:29 52° W 03:01:50 10° NNW
USA 245 3.4 02:58:45 36° NNE 02:58:45 36° NNE 03:00:30 10° N
ASTRO E2 3.7 02:55:31 10° WSW 02:58:52 29° SSW 02:58:52 29° SSW
STARLINK-1373 4.2 03:00:24 37° E 03:00:24 37° E 03:03:08 10° NE
STARLINK-1112 3.6 02:55:16 10° NW 02:59:25 71° NE 03:00:26 48° ESE
Abrixas rocket 2.2 02:57:30 10° WNW 03:00:09 61° WSW 03:00:09 61° WSW
APEX 4.3 02:56:26 10° SSW 03:03:11 81° ESE 03:08:49 10° NNE
STARLINK-1390 4.0 03:04:34 43° E 03:04:34 43° E 03:07:33 10° NE
Cosmos 1242 Rocket 3.8 03:04:39 28° ENE 03:04:39 28° ENE 03:07:04 10° NNE
Cosmos 1943 Rocket 2.8 02:58:39 10° SW 03:04:03 56° WNW 03:09:34 10° NNE
Cosmos 1302 Rocket 4.2 02:58:48 10° SSW 03:04:04 72° WNW 03:09:22 10° NNE
STARLINK-1128 3.5 03:00:14 10° NW 03:04:22 79° NE 03:05:13 55° ESE
Cosmos 2026 Rocket 4.2 03:02:16 33° SSE 03:04:51 52° E 03:10:59 10° NNE
SPOT 1/Viking Rocket 3.7 03:03:35 38° SE 03:05:15 55° ENE 03:10:16 10° N
STARLINK-1365 3.4 03:07:35 62° SSE 03:07:48 64° SE 03:11:48 10° NE
STARLINK-1113 3.5 03:05:13 10° NW 03:09:22 88° NE 03:10:01 63° SE
STARLINK-1119 3.4 03:10:11 10° NW 03:14:20 83° SW 03:14:47 69° SSE
CENTAUR R/B 3.8 03:07:02 10° NNW 03:14:54 45° NE 03:19:26 26° ESE
Cosmos 1766 3.1 03:12:50 10° N 03:16:51 80° E 03:17:08 74° SE
STARLINK-1114 3.5 03:15:11 10° NW 03:19:19 75° SW 03:19:34 71° S
ATLAS 3B R/B 4.4 03:16:51 10° N 03:21:56 22° NE 03:25:46 14° E
Cosmos 1992 Rocket 3.9 03:21:20 52° SSE 03:22:13 61° ESE 03:27:21 10° NNE
STARLINK-1338 3.5 03:23:32 72° NE 03:23:32 72° NE 03:27:06 10° NE
STARLINK-1130 (DARKSAT) 3.6 03:20:10 10° NW 03:24:16 67° SW 03:24:21 66° SW
Cosmos 1656 Rocket 3.5 03:22:49 40° S 03:24:51 72° ESE 03:30:25 10° NNE
Meteor 1-21 4.1 03:25:54 49° SSE 03:27:17 68° E 03:32:51 10° NNE
STARLINK-1084 3.8 03:25:10 10° NW 03:29:08 59° SW 03:29:08 59° SW
STARLINK-1371 3.5 03:31:19 75° NW 03:31:19 75° NW 03:35:15 10° NE
Cosmos 292 Rocket 4.3 03:30:53 24° SW 03:33:37 57° WNW 03:38:24 10° N
STARLINK-1098 4.1 03:30:09 10° NW 03:33:54 51° WSW 03:33:54 51° WSW
STARLINK-1341 3.7 03:35:17 68° WNW 03:35:26 69° NW 03:39:21 10° NE
NOSS 3-2 (C) 4.3 03:27:55 10° NNW 03:35:42 65° ENE 03:39:06 39° ESE
Cosmos 2369 Rocket 3.3 03:31:23 10° SW 03:36:44 42° WNW 03:42:05 10° N
SL-8 R/B 3.6 03:32:08 10° WNW 03:36:55 72° SW 03:37:05 71° SSW
NOSS 3-4 (A) 3.6 03:32:56 10° SW 03:38:47 66° WNW 03:44:55 10° NNE
NOSS 3-4 (C) 3.6 03:33:02 10° SW 03:38:53 67° WNW 03:45:02 10° NNE
STARLINK-1123 4.3 03:35:11 10° WNW 03:38:41 44° WSW 03:38:41 44° WSW
STARLINK-1374 3.8 03:39:17 60° WNW 03:39:33 63° NW 03:43:27 10° NE
ATLAS 3B CENTAUR R/B 3.4 03:23:46 10° W 03:39:41 57° SSW 03:42:24 43° SE
ERS-1 Rocket 2.8 03:39:13 68° SSE 03:39:52 87° ENE 03:44:56 10° NNW
Cosmos 1655 Rocket 4.4 03:40:04 41° E 03:40:30 41° E 03:46:18 10° NNE
OAO 1 4.4 03:37:18 10° W 03:42:50 85° S 03:43:39 66° ESE
BREEZE-M DEB (TANK) 3.7 03:33:48 10° NW 03:43:24 59° NNE 03:44:45 43° E
STARLINK-1339 4.0 03:43:14 52° WNW 03:43:42 57° NW 03:47:35 10° NE
Cosmos 1975 Rocket 4.0 03:42:41 35° WSW 03:43:55 44° W 03:48:09 10° N
Cosmos 1025 Rocket 3.8 03:45:12 41° NE 03:45:12 41° NE 03:48:20 10° NNE
STARLINK-1377 4.2 03:47:11 45° WNW 03:47:53 52° NW 03:51:44 10° NE
STARLINK-1353 4.4 03:51:07 38° W 03:52:03 47° NW 03:55:53 10° NE
Cosmos 1470 3.8 03:51:39 10° N 03:54:15 39° NNE 03:54:15 39° NNE
Cosmos 1867 4.0 03:51:57 10° NNW 03:57:14 48° ENE 03:57:37 47° ENE
Cosmos 968 Rocket 3.3 03:52:45 10° NNW 03:57:51 77° ENE 03:57:51 77° ENE
ATLAS 5 CENTAUR R/B 2.7 03:50:50 10° SW 04:00:18 67° WNW 04:03:24 10° NNE
RESURS DK-1 4.2 04:08:27 23° NE 04:08:27 23° NE 04:10:07 10° NNE
ATLAS 2AS CENTAUR R/B 3.9 03:59:05 10° SW 04:06:41 49° NW 04:14:23 10° NNE
Cosmos 1271 Rocket 4.3 04:16:44 34° NW 04:16:44 34° NW 04:19:39 10° N
COSMOS 2455 3.4 04:13:27 30° SW 04:16:16 56° WNW 04:22:12 10° NNE
Cosmos 1953 4.0 04:12:39 10° N 04:14:45 27° NNE 04:14:45 27° NNE
Cosmos 1455 Rocket 4.3 04:14:40 10° NNW 04:18:11 35° WNW 04:18:11 35° WNW
Meteor 2-19 Rocket 4.4 04:22:19 71° E 04:22:19 71° E 04:28:20 10° NNE
Cosmos 1417 Rocket 4.4 04:16:42 10° N 04:23:04 86° W 04:23:35 77° S
Thor Agena Rocket 4.0 04:18:57 10° NNE 04:23:11 54° NE 04:23:11 54° NE
SPOT 5 4.0 04:25:37 38° WSW 04:25:51 38° W 04:30:50 10° NNW
ATLAS CENTAUR R/B 4.1 04:29:26 10° W 04:32:21 17° NW 04:35:09 10° N
Terra 2.9 04:33:54 39° WNW 04:33:54 39° WNW 04:37:46 10° NNW
Meteor 2-10 4.3 04:31:24 10° N 04:35:35 62° NNW 04:35:35 62° NNW
Cosmos 1503 Rocket 4.5 04:33:34 10° NNW 04:38:11 57° WNW 04:38:11 57° WNW
Meteor 2-15 4.5 04:43:23 10° N 04:49:06 71° NE 04:49:06 71° NE
SeaSat 1 3.4 04:46:53 10° NNE 04:50:07 42° NNE 04:50:07 42° NNE
Cosmos 2297 Rocket 4.1 04:48:47 10° NNE 04:52:34 18° NE 04:53:23 18° ENE
S3M 4.2 04:49:03 10° NNW 04:55:08 59° W 04:55:11 59° W
Cosmos 2315 Rocket 4.1 04:52:19 10° N 04:58:03 66° NE 04:58:03 66° NE
CENTAUR R/B 3.7 04:57:50 10° NW 05:05:45 45° WSW 05:06:37 44° SW
Milstar 3 Cent rocket 4.4 05:01:22 10° WSW 05:12:00 68° S 05:35:57 10° E
ATLAS 3B R/B 2.7 05:06:23 10° NNW 05:13:00 76° W 05:13:00 76° W
Cosmos 1697 Rocket 4.5 05:15:47 21° ENE 05:15:47 21° ENE 05:18:14 10° NE
Exosat Rocket 4.3 05:10:33 10° NNW 05:17:55 61° W 05:17:55 61° W
ALOS 2 4.3 05:23:18 31° N 05:23:18 31° N 05:25:40 10° N
Cosmos 2227 Rocket 3.5 05:25:30 10° N 05:30:27 31° ENE 05:30:27 31° ENE
Cosmos 1745 Rocket 4.3 05:50:15 57° NE 05:50:15 57° NE 05:55:23 10° NNE
FALCON 9 R/B 3.8 05:53:12 36° E 05:53:12 36° E 06:00:47 10° E
Lacrosse 4 Rocket 3.9 05:49:54 10° N 05:52:03 18° NE 05:52:03 18° NE
CZ-4C R/B 2.9 06:00:11 45° N 06:00:11 45° N 06:04:18 10° NNE
Cosmos 1980 Rocket 3.3 06:12:34 36° ENE 06:12:34 36° ENE 06:16:20 10° NE
SJ 16-02 3.2 06:10:37 10° N 06:12:52 29° N 06:12:52 29° N
Cosmos 2369 4.2 06:21:00 57° N 06:21:00 57° N 06:25:28 10° NNE
Cosmos 2297 Rocket 3.1 06:31:27 10° NNW 06:35:10 40° NW 06:35:10 40° NW
Cosmos 1709 Rocket 4.0 06:38:36 75° NNE 06:38:36 75° NNE 06:44:11 10° N
USA 215 3.8 06:35:30 27° ESE 06:39:01 55° NE 06:45:22 10° NW
Cosmos 2219 4.5 06:34:22 10° NW 06:37:35 30° WNW 06:37:35 30° WNW
SL-16 R/B 4.2 06:39:30 19° ESE 06:42:10 26° ENE 06:47:08 10° NNE
Cosmos 1937 Rocket 4.1 06:41:35 10° NNW 06:45:39 53° N 06:45:39 53° N
SL-19 R/B 4.5 06:42:26 10° NNE 06:47:38 70° ENE 06:47:38 70° ENE
Cosmos 2322 Rocket 4.0 06:49:46 20° E 06:49:46 20° E 06:53:27 10° NE
Cosmos 2082 4.0 06:45:14 10° NNW 06:49:50 61° NNW 06:49:50 61° NNW
Cosmos 2278 4.1 06:57:14 54° NW 06:57:14 54° NW 07:02:12 10° NNE
Cosmos 1697 Rocket 3.8 06:57:30 35° WNW 06:57:30 35° WNW 07:02:28 10° N
Cosmos 2285 Rocket 3.9 06:57:21 10° NNW 07:03:42 86° ENE 07:03:42 86° ENE
Resurs 1-4 Rocket 2.6 07:08:09 10° NNE 07:13:02 52° E 07:13:02 52° E
Cosmos 2227 Rocket 3.8 07:09:33 10° NW 07:12:15 23° WNW 07:12:15 23° WNW
IRAS Rocket 4.2 07:15:35 77° NNW 07:15:35 77° NNW 07:20:42 10° NNW
SL-16 R/B 2.5 07:24:07 54° ESE 07:24:07 54° ESE 07:29:38 10° NNE
Cosmos 2074 Rocket 3.9 07:24:26 73° SSE 07:24:59 80° E 07:31:17 10° N
Lacrosse 4 Rocket 4.0 07:27:55 10° NW 07:28:20 12° NW 07:28:20 12° NW
Cosmos 2298 Rocket 4.0 07:29:45 10° NNW 07:35:04 76° ENE 07:35:12 76° E
CZ-2D R/B 1.9 07:36:38 10° N 07:41:48 83° WNW 07:41:48 83° WNW
BREEZE-M DEB (TANK) 3.0 07:41:43 73° WNW 07:41:54 74° NW 07:52:06 10° NE
Cosmos 2360 Rocket 3.3 07:46:14 31° SE 07:47:25 34° ESE 07:52:25 10° NE
Cosmos 2184 Rocket 3.9 07:48:41 63° WSW 07:49:18 67° W 07:55:27 10° N
Cosmos 2327 Rocket 4.4 07:50:48 59° S 07:52:08 89° ESE 07:58:33 10° N
Cosmos 1980 Rocket 3.7 07:54:20 21° WNW 07:55:10 22° WNW 07:59:31 10° N
Cosmos 1076 Rocket 4.1 07:55:10 50° E 07:55:16 51° E 07:59:31 10° NNE
Cosmos 1892 3.6 07:56:58 46° ENE 07:56:58 46° ENE 08:00:07 10° NNE
Cosmos 1610 Rocket 4.3 07:56:59 60° SSW 07:58:14 87° W 08:04:26 10° N
CRYOSAT 2 4.2 07:54:56 10° N 07:59:51 89° ESE 08:00:05 81° S
STARLINK-24 4.3 08:01:58 46° E 08:01:58 46° E 08:05:04 10° NE
CBERS-1 4.0 07:56:39 10° NNE 08:01:47 73° ESE 08:02:33 61° SSE
Cosmos 1869 3.7 07:58:55 10° N 08:02:21 57° NE 08:02:21 57° NE
Timation 1 Rocket 4.2 07:59:14 10° NNW 08:05:07 64° WSW 08:05:50 59° SW
Cosmos 2219 Rocket 4.5 08:02:55 10° SE 08:05:54 15° E 08:08:54 10° ENE
STARLINK-1025 4.3 08:11:08 46° ESE 08:11:08 46° ESE 08:14:44 10° ENE
STARLINK-61 4.4 08:12:43 39° NW 08:12:43 39° NW 08:16:21 10° NNE
STARLINK-25 4.1 08:14:07 45° ENE 08:14:07 45° ENE 08:16:37 10° NE
STARLINK-1017 4.0 08:15:54 53° ESE 08:15:54 53° ESE 08:19:43 10° NE
Cosmos 2263 Rocket 2.0 08:12:33 10° NNW 08:18:08 77° WSW 08:19:55 44° S
IRIDIUM 106 4.2 08:18:51 53° S 08:20:09 88° W 08:25:24 10° N
Cosmos 962 Rocket 4.4 08:18:03 39° S 08:20:29 82° E 08:26:41 10° N
STARLINK-1023 3.8 08:20:41 60° SE 08:20:41 60° SE 08:24:43 10° NE
USA 215 3.8 08:22:46 36° WSW 08:22:46 36° WSW 08:28:03 10° WNW
Cosmos 2154 Rocket 4.2 08:21:54 44° SW 08:23:30 56° W 08:29:37 10° N
ADEOS II 2.0 08:18:29 10° NNE 08:23:46 89° WNW 08:25:16 48° SSW
CZ-4B R/B 4.0 08:19:18 10° N 08:24:18 45° WNW 08:25:12 41° W
SL-16 R/B 2.8 08:24:36 41° WSW 08:25:27 43° W 08:31:18 10° NNW
STARLINK-1007 3.6 08:25:30 67° SSE 08:25:38 68° SE 08:29:45 10° NE
STARLINK-81 3.3 08:26:24 74° NNE 08:26:24 74° NNE 08:29:45 10° NE
NPP 4.4 08:22:04 10° N 08:26:56 36° WNW 08:27:54 33° W
STARLINK-54 3.4 08:28:09 68° NNW 08:28:09 68° NNW 08:31:36 10° NE
IDEFIX/ARIANE 42P 4.2 08:24:04 10° NE 08:28:37 29° E 08:32:34 13° SSE
STARLINK-77 3.3 08:29:34 74° NNW 08:29:34 74° NNW 08:33:03 10° NE
STARLINK-1048 3.5 08:30:16 71° S 08:30:35 77° SE 08:34:43 10° NE
Cosmos 2221 2.8 08:27:07 10° NNW 08:31:15 49° W 08:31:15 49° W
IRS-1D 3.7 08:26:23 10° N 08:31:30 57° WNW 08:32:45 45° WSW
Cosmos 1408 2.4 08:31:51 83° S 08:31:59 88° E 08:35:40 10° N
Cosmos 2322 Rocket 2.7 08:31:35 37° WSW 08:33:04 45° WNW 08:38:27 10° N
Cosmos 1825 2.6 08:32:28 44° SE 08:33:15 54° E 08:36:56 10° NNE
STARLINK-79 3.3 08:34:16 67° NW 08:34:19 67° NW 08:37:55 10° NE
In-Cosmos 22 Rocket 4.4 08:33:14 42° SW 08:34:43 54° W 08:40:07 10° N
Cosmos 1842 Rocket 4.4 08:30:58 10° NNW 08:34:41 35° W 08:34:41 35° W
STARLINK-1049 3.4 08:35:03 67° SSW 08:35:34 85° SE 08:39:43 10° NE
STARLINK-78 3.3 08:35:49 63° NW 08:35:56 63° NW 08:39:30 10° NE
IRS-1C 4.0 08:30:52 10° NNE 08:36:14 85° WNW 08:38:18 39° SSW
STARLINK-57 3.5 08:37:28 55° WNW 08:37:40 56° NW 08:41:14 10° NE
STARLINK-49 3.4 08:38:57 57° WNW 08:39:11 58° NW 08:42:44 10° NE
ARIANE 5 R/B 2.5 08:34:25 10° NNE 08:39:27 76° ESE 08:41:40 34° S
STARLINK-1051 3.5 08:39:48 60° SW 08:40:30 86° NW 08:44:40 10° NE
STARLINK-27 3.5 08:40:31 54° WNW 08:40:48 56° NW 08:44:22 10° NE
STARLINK-74 3.5 08:42:04 51° WNW 08:42:26 54° NW 08:45:58 10° NE
STARLINK-39 3.6 08:43:32 48° WNW 08:43:57 51° NW 08:47:27 10° NE
STARLINK-31 3.7 08:45:04 45° WNW 08:45:32 49° NW 08:49:01 10° NE
STARLINK-69 3.9 08:46:44 39° WNW 08:47:18 42° NW 08:50:45 10° NNE
STARLINK-21 3.9 08:48:11 40° WNW 08:48:47 44° NW 08:52:14 10° NNE
Cosmos 2058 3.9 08:48:46 30° W 08:48:58 30° WNW 08:52:43 10° NNW
Cosmos 1315 Rocket 4.0 08:46:19 10° NNW 08:49:05 26° WNW 08:49:05 26° WNW
STARLINK-1028 3.7 08:49:23 46° WSW 08:50:29 69° NW 08:54:36 10° NE
STARLINK-45 4.1 08:49:56 34° WNW 08:50:39 38° NW 08:54:02 10° NNE
STARLINK-70 4.1 08:51:10 34° WNW 08:51:54 39° NW 08:55:17 10° NNE
Resurs 1-4 Rocket 3.8 08:49:21 10° NNW 08:52:41 17° WNW 08:54:06 15° W
STARLINK-1010 3.9 08:52:24 39° WSW 08:53:44 61° NW 08:57:57 10° NE
STARLINK-76 4.1 08:53:00 34° WNW 08:53:49 39° NW 08:57:14 10° NNE
Cosmos 2366 rocket 4.0 08:50:31 20° S 08:55:03 81° E 09:01:22 10° N
Nadezhda 3 Rocket 4.5 08:49:11 10° NNW 08:55:04 42° W 08:57:47 28° SW
STARLINK-23 4.2 08:54:26 32° WNW 08:55:17 38° NW 08:58:40 10° NNE
STARLINK-1021 3.8 08:54:13 39° WSW 08:55:30 62° NW 08:59:36 10° NE
STARLINK-32 4.2 08:55:55 31° WNW 08:56:50 37° NW 09:00:10 10° NNE
Cosmos 2237 4.5 08:54:21 31° SW 08:56:52 54° WNW 09:02:29 10° NNE
STARLINK-40 4.3 08:57:35 29° WNW 08:58:36 35° NW 09:01:56 10° NNE
CZ-3A R/B 4.4 08:55:39 10° SSE 08:58:38 13° SE 09:03:24 10° ESE
STARLINK-44 4.4 08:59:01 28° WNW 09:00:05 34° NW 09:03:22 10° NNE
STARLINK-1019 3.9 08:58:57 34° WSW 09:00:27 56° NW 09:04:32 10° NE
BREEZE-M TANK 3.9 09:00:19 20° S 09:01:26 23° SE 09:03:55 10° E
GEOS 3 Rocket 3.6 08:56:44 10° SSE 09:01:48 60° WSW 09:06:58 10° NW
STARLINK-36 4.5 09:02:01 25° WNW 09:03:11 32° NW 09:06:26 10° NNE
STARLINK-1012 4.1 09:03:44 30° W 09:05:26 50° NW 09:09:29 10° NE
COBE Rocket 3.9 09:02:52 15° S 09:07:03 74° W 09:12:12 10° NNW
SL-16 R/B 3.9 09:05:59 15° W 09:08:31 19° WNW 09:12:32 10° NNW
Spot 4 Rocket 4.0 09:04:24 10° N 09:09:32 77° WNW 09:12:59 21° SSW
COSMOS 2428 3.3 09:06:24 15° S 09:11:04 55° ESE 09:16:35 10° NNE
Cosmos 1844 Rocket 3.2 09:07:29 10° NNW 09:13:02 61° ENE 09:18:30 10° SSE
Cosmos 1818 4.4 09:10:05 14° S 09:14:23 45° ESE 09:19:34 10° NE
STARLINK-1026 4.4 09:13:18 23° W 09:15:25 41° NW 09:19:22 10° NNE
USA 229 DEB 4.1 09:08:36 10° NW 09:15:39 47° WSW 09:22:54 10° S
Cosmos 1408 Rocket 3.8 09:11:56 13° S 09:15:39 65° E 09:19:54 10° NNE
USA 229 4.1 09:08:42 10° NW 09:15:45 47° WSW 09:23:02 10° S
NOSS 3-1 (C) 4.5 09:09:35 10° NW 09:17:08 45° WSW 09:25:24 10° S
Meteor 1-28 Rocket 3.2 09:16:04 20° S 09:18:29 58° W 09:22:12 10° NNW
Cosmos 1538 Rocket 4.1 09:15:42 22° SSW 09:19:09 65° WNW 09:24:31 10° N
STARLINK-60 2.8 09:20:21 10° NW 09:23:30 65° SW 09:26:40 10° SE
CZ-2D R/B 3.9 09:20:12 10° N 09:24:20 48° WNW 09:27:02 20° SW
NOSS 3-1 (A) 4.2 09:17:09 10° NW 09:25:01 61° WSW 09:33:43 10° SSE
SL-4 R/B 2.2 09:20:23 10° NW 09:25:07 76° SW 09:29:34 10° SE
Cosmos 1727 Rocket 4.2 09:19:29 10° N 09:25:40 76° E 09:31:49 10° S
SL-08 R/B 3.9 09:25:19 19° SSW 09:28:04 34° W 09:32:16 10° NNW
Cosmos 2360 Rocket 3.3 09:28:00 16° WSW 09:31:22 28° WNW 09:36:12 10° N
STARLINK-1444 2.0 09:29:35 10° NW 09:31:54 68° SW 09:34:22 10° SE
ERS-2 2.4 09:29:06 14° S 09:31:59 45° W 09:35:31 10° NNW
H-2A R/B 2.1 09:27:41 10° S 09:32:02 68° WSW 09:36:30 10° NNW
STARLINK-1452 2.0 09:30:13 10° NW 09:32:32 66° SW 09:34:59 10° SE
STARLINK-1033 4.1 09:29:45 17° SSW 09:32:40 51° SE 09:36:42 10° NE
Cosmos 1766 Rocket 4.1 09:30:07 19° SW 09:32:48 41° W 09:36:55 10° N
Cosmos 1606 2.6 09:29:10 10° N 09:32:56 81° W 09:36:44 10° S
Okean 3 Rocket 4.4 09:30:43 19° SW 09:33:22 35° W 09:37:33 10° NNW
STARLINK-1450 2.0 09:31:10 10° NW 09:33:24 62° SW 09:35:48 10° SE
STARLINK-1392 2.0 09:31:20 10° NW 09:33:36 62° SW 09:36:00 10° SE
STARLINK-1415 2.0 09:31:21 10° NW 09:33:37 62° SW 09:36:01 10° SE
STARLINK-1399 2.0 09:31:21 10° NW 09:33:37 62° SW 09:36:01 10° SE
STARLINK-1394 2.0 09:31:22 10° NW 09:33:38 62° SW 09:36:02 10° SE
STARLINK-1395 2.0 09:31:23 10° NW 09:33:38 62° SW 09:36:02 10° SE
STARLINK-1393 2.0 09:31:23 10° NW 09:33:39 62° SW 09:36:03 10° SE
STARLINK-1401 2.0 09:31:23 10° NW 09:33:39 62° SW 09:36:03 10° SE
STARLINK-1396 2.0 09:31:24 10° NW 09:33:39 62° SW 09:36:03 10° SE
STARLINK-1397 2.0 09:31:24 10° NW 09:33:39 62° SW 09:36:03 10° SE
STARLINK-1453 2.0 09:31:24 10° NW 09:33:39 62° SW 09:36:03 10° SE
STARLINK-1404 2.0 09:31:25 10° NW 09:33:41 62° SW 09:36:05 10° SE
STARLINK-1417 2.0 09:31:26 10° NW 09:33:42 62° SW 09:36:06 10° SE
STARLINK-1402 2.0 09:31:26 10° NW 09:33:42 62° SW 09:36:06 10° SE
STARLINK-1413 2.0 09:31:27 10° NW 09:33:43 61° SW 09:36:07 10° SE
STARLINK-1406 2.0 09:31:28 10° NW 09:33:44 61° SW 09:36:08 10° SE
STARLINK-1440 2.0 09:31:30 10° NW 09:33:45 61° SW 09:36:09 10° SE
STARLINK-1414 2.0 09:31:29 10° NW 09:33:46 62° SW 09:36:12 10° SE
STARLINK-1445 2.0 09:31:31 10° NW 09:33:46 61° SW 09:36:10 10° SE
STARLINK-1443 2.0 09:31:31 10° NW 09:33:47 61° SW 09:36:11 10° SE
STARLINK-1454 2.0 09:31:32 10° NW 09:33:47 61° SW 09:36:11 10° SE
STARLINK-1416 2.0 09:31:30 10° NW 09:33:48 62° SW 09:36:14 10° SE
STARLINK-1457 2.0 09:31:33 10° NW 09:33:48 61° SW 09:36:12 10° SE
STARLINK-1456 2.0 09:31:33 10° NW 09:33:49 61° SW 09:36:13 10° SE
STARLINK-1451 2.0 09:31:34 10° NW 09:33:49 61° SW 09:36:13 10° SE
STARLINK-1408 2.0 09:31:31 10° NW 09:33:49 62° SW 09:36:15 10° SE
STARLINK-1442 2.0 09:31:35 10° NW 09:33:51 61° SW 09:36:14 10° SE
STARLINK-1436 (VISORSAT) 2.0 09:31:34 10° NW 09:33:52 62° SW 09:36:18 10° SE
STARLINK-1419 2.0 09:31:35 10° NW 09:33:53 62° SW 09:36:19 10° SE
STARLINK-1405 2.0 09:31:38 10° NW 09:33:53 61° SW 09:36:17 10° SE
STARLINK-1398 2.1 09:31:35 10° NW 09:33:54 62° SW 09:36:21 10° SE
STARLINK-1421 2.0 09:31:38 10° NW 09:33:54 61° SW 09:36:18 10° SE
STARLINK-1410 2.0 09:31:39 10° NW 09:33:54 61° SW 09:36:18 10° SE
STARLINK-1400 2.0 09:31:39 10° NW 09:33:54 61° SW 09:36:18 10° SE
STARLINK-1407 2.0 09:31:40 10° NW 09:33:55 61° SW 09:36:19 10° SE
STARLINK-1409 2.0 09:31:41 10° NW 09:33:56 61° SW 09:36:20 10° SE
STARLINK-1439 2.0 09:31:40 10° NW 09:33:56 61° SW 09:36:19 10° SE
STARLINK-1351 2.0 09:31:42 10° NW 09:33:57 61° SW 09:36:21 10° SE
STARLINK-1370 2.0 09:31:42 10° NW 09:33:57 61° SW 09:36:21 10° SE
STARLINK-1422 2.1 09:31:39 10° NW 09:33:57 62° SW 09:36:24 10° SE
STARLINK-1418 2.0 09:31:42 10° NW 09:33:57 61° SW 09:36:21 10° SE
STARLINK-1420 2.1 09:31:40 10° NW 09:33:58 62° SW 09:36:24 10° SE
STARLINK-1434 2.0 09:31:42 10° NW 09:33:58 61° SW 09:36:22 10° SE
STARLINK-1403 2.0 09:31:43 10° NW 09:33:58 61° SW 09:36:23 10° SE
STARLINK-1433 2.0 09:31:45 10° NW 09:34:00 61° SW 09:36:24 10° SE
STARLINK-1460 2.1 09:31:42 10° NW 09:34:00 61° SW 09:36:26 10° SE
STARLINK-1411 2.0 09:31:45 10° NW 09:34:01 61° SW 09:36:25 10° SE
STARLINK-1438 2.0 09:31:46 10° NW 09:34:02 61° SW 09:36:26 10° SE
STARLINK-1458 2.1 09:31:45 10° NW 09:34:03 61° SW 09:36:29 10° SE
STARLINK-1423 2.1 09:31:48 10° NW 09:34:06 61° SW 09:36:32 10° SE
STARLINK-1446 2.1 09:31:49 10° NW 09:34:07 61° SW 09:36:34 10° SE
STARLINK-1437 2.1 09:31:50 10° NW 09:34:08 61° SW 09:36:34 10° SE
STARLINK-1455 2.1 09:31:53 10° NW 09:34:11 61° SW 09:36:38 10° SE
STARLINK-1447 2.1 09:31:52 10° NW 09:34:11 61° SW 09:36:37 10° SE
STARLINK-1441 2.1 09:31:54 10° NW 09:34:12 61° SW 09:36:39 10° SE
STARLINK-1448 2.1 09:31:57 10° NW 09:34:16 61° SW 09:36:42 10° SE
STARLINK-1449 2.1 09:31:58 10° NW 09:34:17 61° SW 09:36:44 10° SE
STARLINK-1412 2.1 09:32:07 10° NW 09:34:25 61° SW 09:36:52 10° SE
Cosmos 1151 Rocket 3.0 09:30:50 10° N 09:35:14 86° W 09:39:36 10° S
deb Chang Zheng 4 4.0 09:31:54 10° NNE 09:36:07 60° ESE 09:40:18 10° S
Cosmos 2151 4.3 09:34:37 17° WSW 09:36:35 24° WNW 09:40:04 10° NNW
CZ-2C R/B 3.0 09:33:53 10° N 09:37:34 50° WNW 09:40:32 15° SSW
STARLINK-1031 4.0 09:34:32 16° SSW 09:37:37 58° SE 09:41:42 10° NE
Cosmos 2333 Rocket 2.3 09:37:21 14° SSW 09:42:12 65° WNW 09:47:51 10° NNE
STARLINK-1024 3.8 09:39:18 15° SSW 09:42:35 65° SE 09:46:42 10° NE
Cosmos 1515 Rocket 4.0 09:39:35 10° N 09:43:56 64° E 09:48:12 10° SSE
STARLINK-1035 3.7 09:44:06 14° SW 09:47:33 73° SE 09:51:41 10° NE
Cosmos 2322 4.4 09:43:59 14° SW 09:48:29 39° WNW 09:53:50 10° N
Lacrosse 5 rocket 1.2 09:45:32 14° SW 09:48:58 79° NW 09:52:52 10° NE
Cosmos 2219 Rocket 2.3 09:44:09 12° SW 09:49:14 60° WNW 09:54:46 10° NNE
Cosmos 2112 Rocket 4.4 09:47:11 10° S 09:52:22 66° ESE 09:57:38 10° NNE
STARLINK-1032 3.6 09:48:52 13° SW 09:52:31 82° SE 09:56:40 10° NE
BREEZE-M DEB (TANK) 3.0 09:47:52 12° WSW 09:52:56 69° NNW 09:55:48 10° NE
Meteor 1-26 Rocket 4.5 09:47:15 10° N 09:53:11 85° E 09:59:11 10° S
STARLINK-29 2.8 09:52:41 10° NW 09:55:51 71° SW 09:58:58 10° SE
STARLINK-1037 3.6 09:52:08 12° SW 09:55:54 89° ESE 10:00:02 10° NE
SAR-Lupe-1 4.3 09:53:26 10° SSE 09:56:57 75° ENE 10:00:31 10° N
STARLINK-1011 3.6 09:53:39 12° SW 09:57:29 89° NNW 10:01:38 10° NE
Cosmos 2344 3.6 09:50:26 10° SSW 09:58:11 86° WNW 10:05:54 10° NNE
Cosmos 1633 2.5 09:55:15 10° S 09:58:48 76° W 10:02:25 10° N
BREEZE-M DEB (TANK) 4.5 09:56:36 10° NNW 09:59:14 30° NE 10:04:40 10° ESE
Shenzhou-11 Module 4.3 09:58:34 10° NW 10:00:23 18° NNE 10:02:12 10° ENE
ATLAS 5 CENTAUR R/B 1.4 09:57:53 10° SSW 10:01:54 87° ESE 10:06:15 10° NNE
CZ-2C R/B 2.7 09:56:53 10° NNE 10:02:07 81° ESE 10:07:15 10° S
STARLINK-1036 3.6 09:58:26 11° SW 10:02:27 80° NW 10:06:37 10° NE
USA 32 4.0 09:59:09 10° S 10:04:21 76° W 10:09:37 10° N
Cosmos 1743 Rocket 3.6 10:01:08 10° SSW 10:05:30 65° W 10:09:51 10° N
STARLINK-1044 3.7 10:03:20 10° SW 10:07:27 72° NW 10:11:35 10° NE
IDEFIX/ARIANE 42P 3.6 10:03:37 10° N 10:08:05 29° WNW 10:12:31 10° SW
CZ-4B R/B 1.2 10:05:57 10° SSE 10:09:00 84° ENE 10:12:06 10° N
Cosmos 1346 Rocket 2.8 10:07:27 10° SSW 10:11:27 78° W 10:15:26 10° N
STARLINK-1047 3.8 10:08:18 10° SW 10:12:23 65° NW 10:16:31 10° NE
Meteor 2-3 Rocket 4.3 10:07:42 10° SW 10:12:56 40° WNW 10:18:09 10° N
Cosmos 1844 4.0 10:08:49 10° NNW 10:14:23 48° WSW 10:19:52 10° S
